KA0QOK Weather Reports


Display with metric or nautical units.
time (UTC)temp
F
wind
direction
speed
MPH
gust
MPH
rain 1hr
in
rain 24hr
in
rain mn
in
humidity
%
barometer
mb
20221207183023 15 5 6.0 12.0 0.00 0.00 0.00 76 1033.8
20221207181510 15 32 3.0 13.0 0.00 0.00 0.00 77 1034.0
20221207180006 14 27 2.0 20.0 0.00 0.00 0.00 79 1033.7
20221207174500 14 5 2.0 11.0 0.00 0.00 0.00 80 1033.8
20221207173027 13 38 5.0 23.0 0.00 0.00 0.00 79 1033.8
20221207171525 13 26 4.0 14.0 0.00 0.00 0.00 81 1034.0
20221207170015 13 5 8.0 21.0 0.00 0.00 0.00 82 1034.0
20221207164511 12 38 4.0 13.0 0.00 0.00 0.00 83 1034.0
20221207163006 12 344 6.0 14.0 0.00 0.00 0.00 84 1034.0
20221207161502 12 360 4.0 13.0 0.00 0.00 0.00 86 1033.8
20221207160057 12 23 5.0 13.0 0.00 0.00 0.00 86 1033.6
20221207154551 12 344 6.0 17.0 0.00 0.00 0.00 86 1033.1
20221207153048 13 340 5.0 13.0 0.00 0.00 0.00 85 1032.8
20221207151541 14 5 6.0 13.0 0.00 0.00 0.00 85 1032.4
20221207150035 14 30 4.0 13.0 0.00 0.00 0.00 86 1032.0
20221207144533 0 0.0 0.0 0.00 0.00 0.00 1031.8
20221207143025 0 0.0 0.0 0.00 0.00 0.00 1031.5
20221207141521 0 0.0 0.0 0.00 0.00 0.00 1031.4
20221207140048 0 0.0 0.0 0.00 0.00 0.00 1030.9
20221207134551 0 0.0 0.0 0.00 0.00 0.00 1030.3
20221207133050 0 0.0 0.0 0.00 0.00 0.00 1029.7
20221207131537 0 0.0 0.0 0.00 0.00 0.00 1029.6
20221207130027 0 0.0 0.0 0.00 0.00 0.00 1029.6
20221207124532 0 0.0 0.0 0.00 0.00 0.00 1029.0
20221207123015 0 0.0 0.0 0.00 0.00 0.00 1028.4
20221207121524 0 0.0 0.0 0.00 0.00 0.00 1028.3
20221207120006 16 25 5.0 11.0 0.00 0.00 0.00 75 1028.2
20221207114515 16 311 5.0 15.0 0.00 0.00 0.00 75 1028.1
20221207113102 16 28 1.0 4.0 0.00 0.00 0.00 76 1028.3
20221207111600 16 17 3.0 13.0 0.00 0.00 0.00 76 1028.1
20221207111508 16 16 1.0 13.0 0.00 0.00 0.00 76 1028.1
20221207110056 16 360 4.0 14.0 0.00 0.00 0.00 76 1028.2
20221207104552 17 360 3.0 10.0 0.00 0.00 0.00 76 1028.0
20221207103055 17 360 1.0 10.0 0.00 0.00 0.00 77 1027.9
20221207101546 17 345 1.0 11.0 0.00 0.00 0.00 77 1027.8
20221207100045 17 345 0.0 5.0 0.00 0.00 0.00 77 1027.8
20221207094542 17 345 0.0 2.0 0.00 0.00 0.00 76 1027.4
20221207093042 17 345 1.0 4.0 0.00 0.00 0.00 75 1027.1
20221207091536 18 344 1.0 10.0 0.00 0.00 0.00 75 1027.0
20221207090039 18 5 4.0 13.0 0.00 0.00 0.00 75 1026.7
20221207084531 18 11 5.0 15.0 0.00 0.00 0.00 75 1026.7
20221207083029 19 59 4.0 13.0 0.00 0.00 0.00 75 1026.4
20221207081527 19 355 8.0 13.0 0.00 0.00 0.00 75 1026.8
20221207080024 19 17 6.0 13.0 0.00 0.00 0.00 76 1026.0
20221207074520 20 5 5.0 15.0 0.00 0.00 0.00 77 1025.7
20221207073016 20 345 6.0 13.0 0.00 0.00 0.00 78 1025.5
20221207071510 19 19 2.0 10.0 0.00 0.00 0.00 79 1025.4
20221207070007 20 38 1.0 5.0 0.00 0.00 0.00 78 1025.1
20221207064506 20 38 1.0 8.0 0.00 0.00 0.00 79 1024.7